Location: *
(45.1333°S, 169.6333°W)
Time: 21:24:27
(UTC+00:00)

Cosmos 2233 Rocket - Pass Details

Date: 26 May 2022
Orbit: 952 x 991 km, 82.9° (Epoch: 01 July)

Event Time Altitude Azimuth Distance (km) Brightness Sun altitude
Rises 05:32:44 0° 185° (S) 3,697 7.0 -17.7°
Reaches altitude 10° 05:35:22 10° 179° (S) 2,749 6.2 -18.2°
Maximum altitude 05:41:28 49° 104° (ESE) 1,252 4.1 -19.2°
Drops below altitude 10° 05:47:33 10° 29° (NNE) 2,744 6.2 -20.3°
Sets 05:50:10 0° 24° (NNE) 3,689 6.9 -20.8°
